Simultaneous Nadir Overpasses (SNOs) Predictions

Prediction of SNOs between GOES-15 and METOP-A Satellite Orbit:

Table of predicted SNOs for the next 14.0 days since TLE Epoch: 3/22/2013
Index Date Time (GOES-15) GOES-15 Lat,Lon METOP-A Lat,Lon Distance(km) Time Diff (sec)
1 03/22/2013 18:12:53 0.02,-135.27 -0.94,-130.94 493.36 80
2 03/24/2013 06:29:15 -0.02,-135.26 -0.10,-135.54 31.85 80
3 03/26/2013 18:30:12 0.02,-135.18 -0.02,-135.12 8.49 80
4 03/29/2013 06:28:36 -0.02,-135.14 0.07,-134.72 47.72 80
5 03/30/2013 18:44:50 0.01,-135.07 0.93,-139.29 480.70 80
6 03/31/2013 18:26:51 0.02,-135.03 -0.15,-134.29 84.43 80
7 04/02/2013 06:43:14 -0.01,-135.01 -0.87,-138.89 442.75 80
8 04/03/2013 06:25:15 -0.01,-134.97 0.21,-133.90 121.95 80
9 04/04/2013 18:41:30 0.01,-134.88 0.79,-138.46 407.66 80




NCC Satellite Simultaneous Nadir Overpasses (SNOs) Prediction Service
